Current weather by "City, St" or "zip code"  
 

Current Conditions: Santa Barbara, Santa Barbara Municipal Airport, CA

Fog/Mist


53.0 F

Last Updated on May 21 2022, 2:53 am PDT
Humidity: 89%
Wind Speed: N 0.0 mph
Barometer 29.86 in
Dewpoint: 50.0 F
Visibility: 6.00 mi
Precip: --
Heat Index: NA
Wind Chill: NA
Current conditions at:

Santa Barbara, Santa Barbara Municipal Airport, CA (KSBA)

Lat: 34.42611 Lon: 119.84361

Local Radar Image active severe weather and emergency alerts image image weather storm and storm spotter reports image weather observation monitoring service image
Local
Radar
Active
Alerts
Storm Reports Obs
Monitoring

Sign-up For Email & Text Message Weather Alert Notification Services



Advertise Here

Observation History for Santa Barbara, Santa Barbara Municipal Airport, CA


Time Wind
(mph)
Vis
(mi)
Weather Precip (in) Temperature (F) Relative
Humidity
Wind
Chill
(F)
Heat
Index
(F)
Pressure
Air Dwpt altimeter
(in)
sea level
(mb)
Rmks
2:53 am PDT N 0.0 6.00 Fog/Mist -- 53.0 50.0 89% NA NA 29.86 1011.1
1:53 am PDT N 3.5 8.00 Fair -- 54.0 51.1 90% NA NA 29.86 1011.1
12:53 am PDT N 0.0 5.00 Fog/Mist -- 56.0 53.1 90% NA NA 29.86 1011.3
11:53 pm PDT W 3.5 6.00 Fog/Mist -- 56.0 52.0 87% NA NA 29.87 1011.4
10:53 pm PDT W 3.5 8.00 Overcast -- 59.0 53.1 81% NA NA 29.87 1011.4
9:53 pm PDT W 4.6 8.00 Overcast -- 58.0 53.1 84% 58 NA 29.86 1011.0
8:53 pm PDT SW 4.6 9.00 Overcast -- 59.0 52.0 78% 59 NA 29.84 1010.4
7:53 pm PDT W 5.8 10.00 Mostly Cloudy -- 59.0 51.1 75% 58 NA 29.83 1010.1
6:53 pm PDT SW 6.9 9.00 A Few Clouds -- 61.0 52.0 72% 60 NA 29.82 1009.7
5:53 pm PDT W 9.2 10.00 Overcast -- 62.0 52.0 70% 61 NA 29.82 1009.7
4:53 pm PDT SW 9.2 10.00 Overcast -- 62.0 52.0 70% 61 NA 29.81 1009.4
2:53 pm PDT W 8.1 10.00 Overcast -- 63.0 53.1 70% 63 NA 29.82 1009.9
1:53 pm PDT SW 6.9 10.00 Overcast -- 62.0 54.0 75% 62 NA 29.82 1009.9
12:53 pm PDT W 4.6 9.00 Overcast -- 62.0 54.0 75% 62 NA 29.82 1009.8
11:53 am PDT SE 4.6 10.00 Overcast -- 61.0 55.0 81% 61 NA 29.82 1009.8
8:53 am PDT W 4.6 7.00 Overcast -- 58.0 55.9 93% 58 NA 29.81 1009.4
7:53 am PDT W 5.8 2.50 Fog/Mist -- 56.0 54.0 93% 55 NA 29.80 1009.1
6:53 am PDT W 4.6 2.50 Fog/Mist Trace 55.0 54.0 96% 54 NA 29.78 1008.6
4:53 am PDT W 4.6 2.50 Light Rain Fog/Mist 00.01 56.0 55.0 97% 55 NA 29.77 1007.9

Regional Weather Observation


Santa Barbara, Santa Barbara Municipal Airport, CA (KSBA)

Fog/Mist
53.0 F

Lompoc, Lompoc Airport, CA (KLPC)

Fair
44.0 F

Santa Maria Public Airport/Capt G Allan Hancock Field, CA (KSMX)

Fair
47.0 F

Lompoc, Vandenberg Air Force Base, CA (KVBG)

Fair
45.0 F

Oxnard, Oxnard Airport, CA (KOXR)

Fog/Mist
56.0 F

Camarillo, Camarillo Airport, CA (KCMA)

Overcast
58.0 F

Advertise Here


Advertise Here